Simultaneous Nadir Overpasses (SNOs) Predictions

Prediction of SNOs between GOES-17 and AQUA Satellite Orbit:

Table of predicted SNOs for the next 14.0 days since TLE Epoch: 5/11/2024
Index Date Time (GOES-17) GOES-17 Lat,Lon AQUA Lat,Lon Distance(km) Time Diff (sec)
1 05/11/2024 08:52:35 0.00,-104.71 -0.66,-101.60 352.69 80
2 05/11/2024 21:12:54 0.00,-104.69 -0.39,-106.52 208.21 80
3 05/13/2024 20:59:13 0.01,-104.69 0.46,-102.53 246.20 80
4 05/14/2024 09:19:23 -0.01,-104.70 0.60,-107.40 307.81 80
5 05/16/2024 09:00:18 -0.01,-104.71 -0.29,-103.39 149.30 80
6 05/16/2024 21:23:15 0.01,-104.70 -0.80,-108.30 410.32 80
7 05/18/2024 21:06:45 0.01,-104.70 0.08,-104.26 49.30 80
8 05/21/2024 09:10:19 -0.02,-104.72 0.04,-105.09 42.05 80
9 05/23/2024 08:51:00 -0.03,-104.72 -0.80,-101.02 420.76 80
10 05/23/2024 21:11:15 0.03,-104.71 -0.21,-105.92 137.57 80
